Weather History for KMHT - November, 2013

Change the Weather History Date:

Saturday, November 30, 2013

  Actual Average Record
Temperature  
Mean Temperature 21 °F -  
Max Temperature 30 °F 43 °F 66 °F (2006)
Min Temperature 12 °F 24 °F 8 °F (1995)
Degree Days  
Heating Degree Days 44    
Moisture  
Dew Point 11 °F    
Average Humidity 60    
Maximum Humidity 81    
Minimum Humidity 41    
Precipitation  
Precipitation 0.00 in - - ()
Sea Level Pressure  
Sea Level Pressure 30.71 in    
Wind  
Wind Speed 3 mph (SSE)    
Max Wind Speed 9 mph    
Max Gust Speed -    
Visibility 10 miles    
Events      
Averages and records for this station are not official NWS values.
T = Trace of Precipitation, MM = Missing Value Source: NWS Daily Summary

Daily Weather History Graph

Daily Weather History Graph

Search for Another Location

Airport or City:

Trip Planner

Search our weather history database for the weather conditions in past years. The results will help you decide how hot, cold, wet, or windy it might be!

Date:

Astronomy

Nov. 30, 2013 Rise Set
Actual Time 6:56 AM EST 4:12 PM EST
Civil Twilight 6:24 AM EST 4:44 PM EST
Nautical Twilight 5:49 AM EST 5:19 PM EST
Astronomical Twilight 5:15 AM EST 5:53 PM EST
Moon 4:00 AM EST (11/30) 2:37 PM EST (11/30)
Length of Visible Light 10h 19m
Length of Day
9h 16m
Waning Crescent, 7% of the Moon is Illuminated
Nov 30
Waning Crescent
Dec 2
New
Dec 9
First Quarter
Dec 17
Full
Dec 25
Last Quarter

Hourly Weather History & Observations

Time (EST) Temp. Windchill Dew Point Humidity Pressure Visibility Wind Dir Wind Speed Gust Speed Precip Events Conditions
12:53 AM 17.1 °F 11.7 °F 7.0 °F 65% 30.79 in 10.0 mi NNW 3.5 mph - N/A   Clear
1:53 AM 16.0 °F - 7.0 °F 68% 30.81 in 10.0 mi Calm Calm - N/A   Clear
2:53 AM 14.0 °F - 7.0 °F 74% 30.81 in 10.0 mi Calm Calm - N/A   Clear
3:53 AM 15.1 °F 5.2 °F 8.1 °F 74% 30.82 in 10.0 mi North 6.9 mph - N/A   Clear
4:53 AM 14.0 °F - 7.0 °F 74% 30.82 in 10.0 mi Calm Calm - N/A   Clear
5:53 AM 14.0 °F - 7.0 °F 74% 30.84 in 10.0 mi Calm Calm - N/A   Clear
6:53 AM 12.9 °F 6.9 °F 8.1 °F 81% 30.84 in 10.0 mi NNW 3.5 mph - N/A   Clear
7:53 AM 15.1 °F 7.7 °F 7.0 °F 70% 30.85 in 10.0 mi North 4.6 mph - N/A   Clear
8:53 AM 17.1 °F 7.6 °F 7.0 °F 65% 30.86 in 10.0 mi North 6.9 mph - N/A   Clear
9:53 AM 21.0 °F - 9.0 °F 60% 30.83 in 10.0 mi Calm Calm - N/A   Clear
10:53 AM 25.0 °F - 7.0 °F 46% 30.81 in 10.0 mi Calm Calm - N/A   Clear
11:53 AM 28.9 °F - 8.1 °F 41% 30.77 in 10.0 mi Calm Calm - N/A   Clear
12:53 PM 30.0 °F - 9.0 °F 41% 30.73 in 10.0 mi Calm Calm - N/A   Clear
1:53 PM 30.9 °F 26.2 °F 10.9 °F 43% 30.69 in 10.0 mi WSW 4.6 mph - N/A   Partly Cloudy
2:53 PM 30.9 °F 22.8 °F 12.0 °F 46% 30.67 in 10.0 mi SSE 9.2 mph - N/A   Partly Cloudy
3:53 PM 30.0 °F 24.1 °F 12.0 °F 47% 30.66 in 10.0 mi South 5.8 mph - N/A   Scattered Clouds
4:53 PM 28.0 °F 24.2 °F 14.0 °F 56% 30.64 in 10.0 mi SE 3.5 mph - N/A   Partly Cloudy
5:53 PM 28.9 °F 23.9 °F 14.0 °F 54% 30.62 in 10.0 mi SE 4.6 mph - N/A   Overcast
6:53 PM 28.9 °F 23.9 °F 14.0 °F 54% 30.60 in 10.0 mi SE 4.6 mph - N/A   Overcast
7:53 PM 28.9 °F 22.8 °F 16.0 °F 58% 30.59 in 10.0 mi SE 5.8 mph - N/A   Overcast
8:53 PM 30.0 °F 24.1 °F 16.0 °F 56% 30.56 in 10.0 mi SSE 5.8 mph - N/A   Mostly Cloudy
9:53 PM 28.9 °F 21.1 °F 17.1 °F 61% 30.53 in 10.0 mi SSE 8.1 mph - N/A   Overcast
10:53 PM 30.0 °F 21.7 °F 18.0 °F 61% 30.50 in 10.0 mi South 9.2 mph - N/A   Overcast
11:53 PM 30.0 °F 26.5 °F 18.0 °F 61% 30.48 in 10.0 mi WNW 3.5 mph - N/A   Overcast